GW1076 Weather Reports


time (UTC)temp
C
wind
direction
speed
KPH
gust
KPH
rain 1hr
cm
rain 24hr
cm
rain mn
cm
humidity
%
barometer
mb
20260506140534 10 319 8.0 19.3 0.05 0.05 0.05 91 1015.1
20260506140054 10 349 9.7 19.3 0.05 0.05 0.05 91 1014.9
20260506135533 10 344 6.4 12.9 0.03 0.03 0.03 91 1014.7
20260506135032 10 23 6.4 24.1 0.03 0.03 0.03 90 1014.8
20260506134541 10 342 4.8 24.1 0.03 0.03 0.03 89 1015.2
20260506134032 10 359 16.1 24.1 0.03 0.03 0.03 89 1014.3
20260506133531 10 37 14.5 24.1 0.00 0.00 0.00 87 1014.1
20260506133052 10 25 12.9 19.3 0.00 0.00 0.00 86 1014.4
20260506132534 10 327 6.4 24.1 0.00 0.00 0.00 86 1015.4
20260506132030 10 309 9.7 24.1 0.00 0.00 0.00 86 1014.8
20260506131544 10 23 16.1 24.1 0.00 0.00 0.00 85 1012.9
20260506131031 11 51 16.1 27.4 0.00 0.00 0.00 85 1013.3
20260506130533 11 24 17.7 27.4 0.00 0.00 0.00 85 1013.4
20260506130044 11 44 12.9 22.5 0.00 0.00 0.00 85 1013.2
20260506125532 11 3 8.0 22.5 0.00 0.00 0.00 85 1014.0
20260506125032 11 7 9.7 24.1 0.00 0.00 0.00 86 1014.3
20260506124540 11 349 14.5 24.1 0.00 0.00 0.00 85 1013.9
20260506124032 11 333 11.3 20.9 0.00 0.00 0.00 86 1013.5
20260506123533 11 21 9.7 19.3 0.00 0.00 0.00 86 1013.4
20260506123039 11 23 9.7 19.3 0.00 0.00 0.00 86 1013.1
20260506122532 11 332 9.7 17.7 0.00 0.00 0.00 86 1012.9
20260506122036 11 355 11.3 25.7 0.00 0.00 0.00 86 1012.5
20260506121544 11 20 16.1 25.7 0.00 0.00 0.00 86 1012.3
20260506121033 11 336 14.5 22.5 0.00 0.00 0.00 86 1012.1
20260506120533 11 32 14.5 24.1 0.00 0.00 0.00 86 1012.1
20260506120047 11 44 17.7 24.1 0.00 0.00 0.00 86 1012.0
20260506115530 11 21 14.5 24.1 0.00 0.00 0.00 86 1011.9
20260506115030 11 342 16.1 24.1 0.00 0.00 0.00 86 1011.9
20260506114541 11 10 11.3 27.4 0.00 0.00 0.00 85 1011.9
20260506114033 11 13 12.9 27.4 0.00 0.00 0.00 85 1012.0
20260506113533 11 25 12.9 20.9 0.00 0.00 0.00 86 1012.0
20260506113047 11 2 12.9 19.3 0.00 0.00 0.00 85 1012.0
20260506112535 11 18 9.7 20.9 0.00 0.00 0.00 85 1012.1
20260506112034 11 323 11.3 22.5 0.00 0.00 0.00 85 1012.1
20260506111552 11 17 14.5 22.5 0.00 0.00 0.00 84 1012.0
20260506111035 12 53 12.9 19.3 0.00 0.00 0.00 84 1011.8
20260506110533 12 340 12.9 19.3 0.00 0.00 0.00 84 1011.9
20260506110048 12 342 8.0 19.3 0.00 0.00 0.00 85 1011.9
20260506105533 12 344 12.9 19.3 0.00 0.00 0.00 84 1011.9
20260506105033 12 348 12.9 20.9 0.00 0.00 0.00 84 1011.8
20260506104554 12 11 14.5 20.9 0.00 0.00 0.00 84 1011.7
20260506104030 12 317 12.9 19.3 0.00 0.00 0.00 84 1011.5
20260506103533 12 327 12.9 22.5 0.00 0.00 0.00 84 1011.4
20260506103043 12 331 12.9 22.5 0.00 0.00 0.00 85 1011.4
20260506102534 12 355 12.9 19.3 0.00 0.00 0.00 84 1011.2
20260506102034 12 47 11.3 16.1 0.00 0.00 0.00 85 1010.9
20260506101548 12 38 11.3 17.7 0.00 0.00 0.00 84 1010.8
20260506101032 12 8 11.3 17.7 0.00 0.00 0.00 85 1010.9
20260506100532 12 34 9.7 17.7 0.00 0.00 0.00 85 1010.8
20260506100046 12 4 11.3 17.7 0.00 0.00 0.00 85 1010.7
20260506095535 12 352 11.3 20.9 0.00 0.00 0.00 85 1010.5
20260506095033 12 20 12.9 20.9 0.00 0.00 0.00 84 1010.6
20260506094547 12 344 12.9 19.3 0.00 0.00 0.00 85 1010.6
20260506094033 12 13 9.7 17.7 0.00 0.00 0.00 85 1010.7
20260506093532 12 27 8.0 20.9 0.00 0.00 0.00 85 1010.7
20260506093047 12 23 11.3 20.9 0.00 0.00 0.00 85 1010.6
20260506092533 12 1 11.3 20.9 0.00 0.00 0.00 85 1010.4
20260506092033 12 307 11.3 19.3 0.00 0.00 0.00 85 1010.4
20260506091544 12 345 9.7 17.7 0.00 0.00 0.00 85 1010.3
20260506091034 12 350 8.0 17.7 0.00 0.00 0.00 85 1010.3
20260506090533 12 34 9.7 17.7 0.00 0.00 0.00 85 1010.1
20260506090041 12 357 8.0 17.7 0.00 0.00 0.00 85 1010.3
20260506085533 12 6 11.3 17.7 0.00 0.00 0.00 85 1010.3
20260506085033 12 16 9.7 20.9 0.00 0.00 0.00 85 1010.1
20260506084544 12 8 11.3 20.9 0.00 0.00 0.00 85 1010.0
20260506084033 12 353 11.3 16.1 0.00 0.00 0.00 85 1010.1
20260506083539 12 359 8.0 16.1 0.00 0.00 0.00 86 1010.1
20260506083050 12 335 8.0 16.1 0.00 0.00 0.00 86 1010.3
20260506082532 12 8 11.3 16.1 0.00 0.00 0.00 86 1010.2
20260506082036 12 33 9.7 16.1 0.00 0.00 0.00 87 1010.1
20260506081552 12 345 9.7 16.1 0.00 0.00 0.00 87 1010.1
20260506081039 12 27 9.7 14.5 0.00 0.00 0.00 86 1010.0
20260506080532 12 8 8.0 14.5 0.00 0.00 0.00 86 1010.0
20260506073043 13 347 4.8 14.5 0.00 0.00 0.00 86 1009.8
20260506072536 13 357 6.4 16.1 0.00 0.00 0.00 86 1009.8
20260506072033 13 350 9.7 16.1 0.00 0.00 0.00 85 1009.9
20260506071542 13 330 8.0 16.1 0.00 0.00 0.00 85 1009.9
20260506071033 13 13 6.4 16.1 0.00 0.00 0.00 85 1009.8
20260506070538 13 2 8.0 16.1 0.00 0.00 0.00 84 1009.9
20260506062033 15 25 6.4 12.9 0.00 0.00 0.00 81 1009.2
20260506061542 15 20 6.4 12.9 0.00 0.00 0.00 81 1009.2
20260506061034 15 35 8.0 12.9 0.00 0.00 0.00 82 1009.2
20260506060533 15 32 4.8 8.0 0.00 0.00 0.00 81 1009.3
20260506051035 17 23 12.9 22.5 0.00 0.00 0.00 78 1009.6
20260506050533 17 60 11.3 19.3 0.00 0.00 0.00 78 1009.5
20260506045038 17 39 8.0 17.7 0.00 0.00 0.00 76 1009.5
20260506044543 17 20 8.0 17.7 0.00 0.00 0.00 76 1009.4
20260506044034 17 11 12.9 17.7 0.00 0.00 0.00 75 1009.5
20260506043532 18 24 9.7 19.3 0.00 0.00 0.00 75 1009.3
20260506043040 18 51 11.3 19.3 0.00 0.00 0.00 75 1009.2
20260506042536 18 43 11.3 16.1 0.00 0.00 0.00 75 1009.2
20260506042033 18 44 8.0 19.3 0.00 0.00 0.00 76 1009.3
20260506041548 18 18 11.3 19.3 0.00 0.00 0.00 75 1009.2
20260506041032 18 63 4.8 11.3 0.00 0.00 0.00 74 1009.2
20260506040532 18 18 4.8 9.7 0.00 0.00 0.00 74 1009.2
20260506040046 18 25 6.4 11.3 0.00 0.00 0.00 73 1009.1
20260506035535 18 8 4.8 11.3 0.00 0.00 0.00 73 1008.9
20260506035035 18 36 6.4 12.9 0.00 0.00 0.00 72 1008.7
20260506034543 19 37 6.4 12.9 0.00 0.00 0.00 72 1008.7
20260506034031 19 37 8.0 12.9 0.00 0.00 0.00 72 1008.8
20260506033537 19 359 6.4 12.9 0.00 0.00 0.00 72 1009.0
20260506033043 19 15 6.4 12.9 0.00 0.00 0.00 72 1008.9
20260506032536 19 16 8.0 17.7 0.00 0.00 0.00 72 1008.9
20260506032033 19 359 9.7 17.7 0.00 0.00 0.00 71 1009.0
20260506031550 19 334 8.0 11.3 0.00 0.00 0.00 72 1008.9
20260506031038 19 4 8.0 12.9 0.00 0.00 0.00 72 1008.8
20260506030533 20 4 8.0 12.9 0.00 0.00 0.00 72 1008.7
20260506030052 20 19 6.4 12.9 0.00 0.00 0.00 71 1008.6
20260506025532 20 39 8.0 12.9 0.00 0.00 0.00 71 1008.3
20260506025036 20 2 8.0 12.9 0.00 0.00 0.00 71 1008.2
20260506024555 20 52 6.4 11.3 0.00 0.00 0.00 70 1008.1
20260506024033 20 4 6.4 11.3 0.00 0.00 0.00 70 1007.9
20260506023534 20 355 4.8 16.1 0.00 0.00 0.00 69 1007.7
20260506023058 20 15 9.7 16.1 0.00 0.00 0.00 68 1007.5
20260506022532 21 28 9.7 17.7 0.00 0.00 0.00 68 1007.3
20260506022032 21 23 12.9 17.7 0.00 0.00 0.00 68 1007.3
20260506021554 21 23 11.3 17.7 0.00 0.00 0.00 67 1006.9
20260506021032 21 346 12.9 19.3 0.00 0.00 0.00 67 1006.9
20260506020532 21 7 11.3 24.1 0.00 0.00 0.00 67 1006.8
20260506020042 21 23 14.5 24.1 0.00 0.00 0.00 67 1006.8
20260506015535 21 34 16.1 20.9 0.00 0.00 0.00 67 1006.5
20260506015034 22 26 14.5 22.5 0.00 0.00 0.00 66 1006.4
20260506014544 22 322 14.5 22.5 0.00 0.00 0.00 67 1006.2
20260506014032 22 20 11.3 19.3 0.00 0.00 0.00 67 1006.2
20260506013532 22 11 9.7 14.5 0.00 0.00 0.00 69 1006.0
20260506013039 23 18 8.0 14.5 0.00 0.00 0.00 67 1005.9
20260506012533 23 12 11.3 19.3 0.00 0.00 0.00 66 1005.7
20260506012032 23 35 11.3 19.3 0.00 0.00 0.00 66 1005.6
20260506011539 23 352 12.9 19.3 0.00 0.00 0.00 65 1005.4
20260506011032 24 13 11.3 24.1 0.00 0.00 0.00 66 1005.4
20260506010532 25 20 11.3 25.7 0.00 0.00 0.00 65 1005.3
20260506010048 25 19 14.5 25.7 0.00 0.00 0.00 63 1005.1
20260506005533 25 32 11.3 22.5 0.00 0.00 0.00 64 1004.8
20260506005032 25 10 11.3 22.5 0.00 0.00 0.00 63 1004.7
20260506004549 26 38 14.5 20.9 0.00 0.00 0.00 62 1004.7
20260506004034 26 344 8.0 19.3 0.00 0.00 0.00 61 1004.7
20260506003533 27 360 12.9 25.7 0.00 0.00 0.00 60 1004.5
20260506003042 28 360 14.5 25.7 0.00 0.00 0.00 57 1004.4
20260506002533 29 6 4.8 8.0 0.00 0.00 0.00 58 1004.3
20260506002033 29 0 0.0 4.8 0.00 0.00 0.00 56 1004.3
20260506001545 30 138 0.0 9.7 0.00 0.00 0.00 54 1004.0
20260506001034 30 143 3.2 9.7 0.00 0.00 0.00 53 1004.1
20260506000533 30 212 4.8 8.0 0.00 0.00 0.00 52 1004.0
20260506000038 31 148 4.8 9.7 0.00 0.00 0.00 52 1004.0
20260505235532 31 128 4.8 9.7 0.00 0.00 0.00 52 1004.0
20260505235032 31 155 4.8 9.7 0.00 0.00 0.00 46 1003.9
20260505234600 32 217 1.6 8.0 0.00 0.00 0.00 44 1004.0
20260505234035 31 160 3.2 12.9 0.00 0.00 0.00 45 1004.0
20260505233533 31 194 6.4 12.9 0.00 0.00 0.00 45 1004.1
20260505233046 31 226 6.4 12.9 0.00 0.00 0.00 43 1004.2
20260505232532 31 226 6.4 12.9 0.00 0.00 0.00 45 1004.2
20260505232034 31 236 6.4 12.9 0.00 0.00 0.00 47 1004.2
20260505231545 31 189 4.8 12.9 0.00 0.00 0.00 48 1004.2
20260505231031 31 206 6.4 16.1 0.00 0.00 0.00 47 1004.2
20260505230532 31 207 6.4 16.1 0.00 0.00 0.00 46 1004.1
20260505230042 32 190 8.0 12.9 0.00 0.00 0.00 49 1004.0
20260505225533 31 161 8.0 12.9 0.00 0.00 0.00 49 1003.9
20260505225035 32 229 6.4 14.5 0.00 0.00 0.00 48 1004.0
20260505224539 32 220 6.4 14.5 0.00 0.00 0.00 49 1004.0
20260505224035 32 194 8.0 14.5 0.00 0.00 0.00 49 1003.9
20260505223532 31 176 8.0 19.3 0.00 0.00 0.00 51 1004.0
20260505223041 31 221 9.7 19.3 0.00 0.00 0.00 49 1004.0
20260505222535 31 192 9.7 16.1 0.00 0.00 0.00 50 1004.0
20260505222032 31 172 9.7 16.1 0.00 0.00 0.00 52 1004.2
20260505221539 31 158 9.7 14.5 0.00 0.00 0.00 50 1004.1
20260505221032 31 173 6.4 12.9 0.00 0.00 0.00 51 1004.2
20260505220532 31 205 6.4 14.5 0.00 0.00 0.00 51 1004.2
20260505220041 31 199 6.4 14.5 0.00 0.00 0.00 52 1004.2
20260505215532 31 211 6.4 19.3 0.00 0.00 0.00 50 1004.3
20260505215033 31 212 8.0 19.3 0.00 0.00 0.00 50 1004.4
20260505214602 31 230 8.0 14.5 0.00 0.00 0.00 51 1004.4
20260505214033 31 211 4.8 16.1 0.00 0.00 0.00 50 1004.3
20260505213534 31 208 9.7 16.1 0.00 0.00 0.00 48 1004.4
20260505213056 31 197 8.0 14.5 0.00 0.00 0.00 50 1004.2
20260505212533 31 220 8.0 14.5 0.00 0.00 0.00 50 1004.2
20260505212034 31 239 8.0 16.1 0.00 0.00 0.00 51 1004.3
20260505211541 31 200 8.0 16.1 0.00 0.00 0.00 50 1004.5
20260505211033 31 203 8.0 16.1 0.00 0.00 0.00 51 1004.4
20260505210532 31 209 4.8 12.9 0.00 0.00 0.00 51 1004.5
20260505210040 31 257 6.4 17.7 0.00 0.00 0.00 52 1004.6
20260505205534 31 238 4.8 17.7 0.00 0.00 0.00 53 1004.6
20260505205034 31 245 9.7 17.7 0.00 0.00 0.00 48 1004.7
20260505204550 31 226 6.4 17.7 0.00 0.00 0.00 53 1004.9
20260505204034 31 240 9.7 17.7 0.00 0.00 0.00 52 1004.9
20260505203533 31 240 9.7 17.7 0.00 0.00 0.00 52 1004.9
20260505203049 31 214 6.4 17.7 0.00 0.00 0.00 51 1004.9
20260505202532 31 250 8.0 19.3 0.00 0.00 0.00 50 1005.1
20260505202034 31 223 9.7 19.3 0.00 0.00 0.00 52 1005.2
20260505201541 31 220 6.4 17.7 0.00 0.00 0.00 52 1005.3
20260505201034 31 256 11.3 17.7 0.00 0.00 0.00 50 1005.4
20260505200536 31 257 4.8 17.7 0.00 0.00 0.00 50 1005.4
20260505200101 31 205 8.0 17.7 0.00 0.00 0.00 56 1005.3
20260505195537 31 234 11.3 17.7 0.00 0.00 0.00 53 1005.4
20260505195034 31 251 8.0 17.7 0.00 0.00 0.00 55 1005.3
20260505194545 30 200 8.0 16.1 0.00 0.00 0.00 58 1005.3
20260505194032 30 247 8.0 14.5 0.00 0.00 0.00 55 1005.4
20260505193532 30 234 8.0 16.1 0.00 0.00 0.00 56 1005.5
20260505193050 30 216 9.7 16.1 0.00 0.00 0.00 56 1005.6
20260505192535 30 224 11.3 16.1 0.00 0.00 0.00 54 1005.6
20260505192036 30 221 8.0 19.3 0.00 0.00 0.00 52 1005.6
20260505191544 30 246 9.7 19.3 0.00 0.00 0.00 54 1005.7
20260505191035 30 229 9.7 17.7 0.00 0.00 0.00 57 1005.7
20260505190533 30 263 9.7 20.9 0.00 0.00 0.00 59 1005.8
20260505190049 30 275 11.3 20.9 0.00 0.00 0.00 57 1005.8
20260505185534 30 247 11.3 20.9 0.00 0.00 0.00 57 1005.9
20260505185033 30 272 12.9 19.3 0.00 0.00 0.00 58 1005.9
20260505184540 30 264 8.0 19.3 0.00 0.00 0.00 57 1006.0
20260505184037 29 288 9.7 24.1 0.00 0.00 0.00 58 1006.1
20260505183532 29 237 14.5 24.1 0.00 0.00 0.00 57 1006.1
20260505183039 29 228 14.5 24.1 0.00 0.00 0.00 58 1006.1
20260505182533 29 258 12.9 22.5 0.00 0.00 0.00 59 1006.2
20260505182032 29 250 11.3 22.5 0.00 0.00 0.00 61 1006.2
20260505181544 29 236 11.3 22.5 0.00 0.00 0.00 63 1006.3
20260505181036 29 221 9.7 22.5 0.00 0.00 0.00 62 1006.2
20260505180531 28 263 12.9 22.5 0.00 0.00 0.00 61 1006.2
20260505180103 28 258 11.3 22.5 0.00 0.00 0.00 62 1006.2
20260505175537 28 166 11.3 22.5 0.00 0.00 0.00 63 1006.2
20260505175037 28 245 14.5 22.5 0.00 0.00 0.00 64 1006.2
20260505174600 28 229 11.3 22.5 0.00 0.00 0.00 66 1006.3
20260505174037 28 245 9.7 22.5 0.00 0.00 0.00 66 1006.4
20260505173536 27 222 8.0 20.9 0.00 0.00 0.00 67 1006.3
20260505173045 27 205 9.7 20.9 0.00 0.00 0.00 68 1006.4
20260505172534 27 229 11.3 20.9 0.00 0.00 0.00 69 1006.5
20260505172035 27 179 11.3 20.9 0.00 0.00 0.00 69 1006.5
20260505171546 27 214 14.5 20.9 0.00 0.00 0.00 68 1006.4
20260505171034 27 223 11.3 20.9 0.00 0.00 0.00 70 1006.4
20260505170533 27 256 12.9 25.7 0.00 0.00 0.00 69 1006.4
20260505170047 27 239 14.5 25.7 0.00 0.00 0.00 70 1006.4
20260505165533 26 223 14.5 24.1 0.00 0.00 0.00 70 1006.4
20260505165101 26 200 9.7 19.3 0.00 0.00 0.00 70 1006.5
20260505164549 26 240 12.9 19.3 0.00 0.00 0.00 70 1006.5
20260505164032 26 266 9.7 17.7 0.00 0.00 0.00 72 1006.5
20260505163533 26 262 11.3 17.7 0.00 0.00 0.00 71 1006.5
20260505163053 26 207 9.7 20.9 0.00 0.00 0.00 72 1006.5
20260505162535 26 214 8.0 20.9 0.00 0.00 0.00 72 1006.6
20260505162036 26 232 9.7 20.9 0.00 0.00 0.00 73 1006.6
20260505161604 25 211 8.0 17.7 0.00 0.00 0.00 73 1006.5
20260505161036 25 205 6.4 16.1 0.00 0.00 0.00 75 1006.5
20260505160534 25 242 9.7 16.1 0.00 0.00 0.00 76 1006.4
20260505153049 24 208 12.9 22.5 0.00 0.00 0.00 76 1006.0
20260505152534 24 189 12.9 22.5 0.00 0.00 0.00 76 1006.0
20260505152036 24 243 9.7 22.5 0.00 0.00 0.00 77 1006.0
20260505151546 24 227 11.3 25.7 0.00 0.00 0.00 77 1006.0
20260505151033 24 217 14.5 25.7 0.00 0.00 0.00 78 1006.0
20260505150536 24 229 14.5 24.1 0.00 0.00 0.00 77 1006.0